Grande Europa — ICGE — position and weather

sailwx.info

Track history (hours):
 
Tides and Currents Weather Stations Pressure Air Temp Water Temp Dewpoint Dewpoint Depression Visibility Wind Speed Wind Dir Waves Ship Positions

Grande Europa

Last reported at 2014-Nov-29 02:32 UTC. Time now 2014-Nov-29 03:41 UTC.
Position N 50°49' W 005°05'.

Length 183 m; draft 8.4 m.

Type: Cargo ship. MMSI: 247206000.

Date/timePositionNaut miles runAvg speedWind from/ knotsBaromVisibWave heightAir tempDewpointWater temp
2014-Nov-29 02:32N 50°49' W 005°05'1515.7
2014-Nov-29 01:33N 50°38' W 005°22'1615.6
2014-Nov-29 00:33N 50°27' W 005°40'73916.1
2014-Nov-27 02:32N 38°27' W 009°29'1616.6
2014-Nov-27 01:33N 38°21' W 009°09'1514.7
2014-Nov-27 00:33N 38°30' W 008°55'2 1.8
2014-Nov-26 23:33N 38°31' W 008°53'0 0.0
2014-Nov-26 22:33N 38°31' W 008°53'0 0.0
2014-Nov-26 21:33N 38°31' W 008°53'0 0.0
2014-Nov-26 20:33N 38°31' W 008°53'0 0.0
2014-Nov-26 19:30N 38°31' W 008°53'0 0.0
2014-Nov-26 18:33N 38°31' W 008°53'0 0.0
2014-Nov-26 17:33N 38°31' W 008°53'2 1.9
2014-Nov-26 16:31N 38°30' W 008°55'1 1.5
2014-Nov-26 15:33N 38°31' W 008°54'8 7.7
2014-Nov-26 14:33N 38°25' W 008°60'1413.9
2014-Nov-26 13:33N 38°11' W 009°03'1414.4
2014-Nov-26 12:33N 37°57' W 009°07'1414.2
2014-Nov-26 11:33N 37°43' W 009°10'1414.5
2014-Nov-26 10:33N 37°29' W 009°14'5012.4
2014-Nov-26 06:32N 36°42' W 008°56'1716.7
2014-Nov-26 05:32N 36°37' W 008°36'15116.1
2014-Nov-25 20:12N 35°58' W 005°35'913.5
2014-Nov-25 19:33N 36°00' W 005°25'21316.3
2014-Nov-25 06:28N 37°07' W 001°13'1718.1
2014-Nov-25 05:33N 37°18' W 000°57'2118.6
2014-Nov-25 04:27N 37°31' W 000°38'1618.3
2014-Nov-25 03:33N 37°44' W 000°25'1918.3
2014-Nov-25 02:32N 37°60' W 000°13'8315.2
2014-Nov-24 21:06N 39°22' W 000°13'610.9
2014-Nov-24 20:34N 39°26' W 000°18'0 0.1
2014-Nov-24 19:31N 39°26' W 000°18'0 0.0
2014-Nov-24 18:31N 39°27' W 000°18'0 0.0
2014-Nov-24 17:31N 39°27' W 000°18'0 0.0
2014-Nov-24 16:31N 39°27' W 000°18'0 0.0
2014-Nov-24 15:31N 39°27' W 000°18'0 0.0
2014-Nov-24 14:31N 39°27' W 000°18'0 0.0
2014-Nov-24 13:31N 39°27' W 000°18'4 4.2
2014-Nov-24 12:33N 39°25' W 000°14'6427.8
2014-Nov-24 10:14N 39°16' E 001°09'1015.1
2014-Nov-24 09:33N 39°17' E 000°55'1817.8
2014-Nov-24 08:33N 39°15' E 001°18'1817.8
2014-Nov-24 07:33N 39°12' E 001°41'1817.9
2014-Nov-24 06:33N 39°10' E 002°04'1817.8
2014-Nov-24 05:33N 39°07' E 002°26'1817.6
2014-Nov-24 04:33N 39°05' E 002°49'1717.4
2014-Nov-24 03:33N 39°03' E 003°11'1717.3
2014-Nov-24 02:33N 39°02' E 003°33'1716.8
2014-Nov-24 01:33N 39°01' E 003°55'13118.5
2014-Nov-23 18:26N 38°52' E 006°43'2115.5
2014-Nov-23 17:06N 38°50' E 007°10'1017.3
2014-Nov-23 16:31N 38°50' E 007°23'2018.0
2014-Nov-23 15:24N 38°48' E 007°49'1819.4
2014-Nov-23 14:28N 38°46' E 008°12'1617.1
2014-Nov-23 13:31N 38°46' E 008°32'1818.7
2014-Nov-23 12:33N 38°48' E 008°56'1918.8
2014-Nov-23 11:33N 38°54' E 009°18'2417.0
2014-Nov-23 10:09N 39°02' E 009°47'7816.9
2014-Nov-23 05:33N 39°33' E 011°20'11218.7
2014-Nov-22 23:33N 40°16' E 013°35'1918.9
2014-Nov-22 22:33N 40°23' E 013°58'1919.0
2014-Nov-22 21:34N 40°30' E 014°21'17 1.2
2014-Nov-22 07:32N 40°32' E 014°42'  
Track history (hours):
 
Tides and Currents Weather Stations Pressure Air Temp Water Temp Dewpoint Dewpoint Depression Visibility Wind Speed Wind Dir Waves Ship Positions

Grande Europa

Last reported at 2014-Nov-29 02:32 UTC. Time now 2014-Nov-29 03:41 UTC.
Position N 50°49' W 005°05'.

Length 183 m; draft 8.4 m.

Type: Cargo ship. MMSI: 247206000.

Date/timePositionNaut miles runAvg speedWind from/ knotsBaromVisibWave heightAir tempDewpointWater temp
2014-Nov-29 02:32N 50°49' W 005°05'1515.7
2014-Nov-29 01:33N 50°38' W 005°22'1615.6
2014-Nov-29 00:33N 50°27' W 005°40'73916.1
2014-Nov-27 02:32N 38°27' W 009°29'1616.6
2014-Nov-27 01:33N 38°21' W 009°09'1514.7
2014-Nov-27 00:33N 38°30' W 008°55'2 1.8
2014-Nov-26 23:33N 38°31' W 008°53'0 0.0
2014-Nov-26 22:33N 38°31' W 008°53'0 0.0
2014-Nov-26 21:33N 38°31' W 008°53'0 0.0
2014-Nov-26 20:33N 38°31' W 008°53'0 0.0
2014-Nov-26 19:30N 38°31' W 008°53'0 0.0
2014-Nov-26 18:33N 38°31' W 008°53'0 0.0
2014-Nov-26 17:33N 38°31' W 008°53'2 1.9
2014-Nov-26 16:31N 38°30' W 008°55'1 1.5
2014-Nov-26 15:33N 38°31' W 008°54'8 7.7
2014-Nov-26 14:33N 38°25' W 008°60'1413.9
2014-Nov-26 13:33N 38°11' W 009°03'1414.4
2014-Nov-26 12:33N 37°57' W 009°07'1414.2
2014-Nov-26 11:33N 37°43' W 009°10'1414.5
2014-Nov-26 10:33N 37°29' W 009°14'5012.4
2014-Nov-26 06:32N 36°42' W 008°56'1716.7
2014-Nov-26 05:32N 36°37' W 008°36'15116.1
2014-Nov-25 20:12N 35°58' W 005°35'913.5
2014-Nov-25 19:33N 36°00' W 005°25'21316.3
2014-Nov-25 06:28N 37°07' W 001°13'1718.1
2014-Nov-25 05:33N 37°18' W 000°57'2118.6
2014-Nov-25 04:27N 37°31' W 000°38'1618.3
2014-Nov-25 03:33N 37°44' W 000°25'1918.3
2014-Nov-25 02:32N 37°60' W 000°13'8315.2
2014-Nov-24 21:06N 39°22' W 000°13'610.9
2014-Nov-24 20:34N 39°26' W 000°18'0 0.1
2014-Nov-24 19:31N 39°26' W 000°18'0 0.0
2014-Nov-24 18:31N 39°27' W 000°18'0 0.0
2014-Nov-24 17:31N 39°27' W 000°18'0 0.0
2014-Nov-24 16:31N 39°27' W 000°18'0 0.0
2014-Nov-24 15:31N 39°27' W 000°18'0 0.0
2014-Nov-24 14:31N 39°27' W 000°18'0 0.0
2014-Nov-24 13:31N 39°27' W 000°18'4 4.2
2014-Nov-24 12:33N 39°25' W 000°14'6427.8
2014-Nov-24 10:14N 39°16' E 001°09'1015.1
2014-Nov-24 09:33N 39°17' E 000°55'1817.8
2014-Nov-24 08:33N 39°15' E 001°18'1817.8
2014-Nov-24 07:33N 39°12' E 001°41'1817.9
2014-Nov-24 06:33N 39°10' E 002°04'1817.8
2014-Nov-24 05:33N 39°07' E 002°26'1817.6
2014-Nov-24 04:33N 39°05' E 002°49'1717.4
2014-Nov-24 03:33N 39°03' E 003°11'1717.3
2014-Nov-24 02:33N 39°02' E 003°33'1716.8
2014-Nov-24 01:33N 39°01' E 003°55'13118.5
2014-Nov-23 18:26N 38°52' E 006°43'2115.5
2014-Nov-23 17:06N 38°50' E 007°10'1017.3
2014-Nov-23 16:31N 38°50' E 007°23'2018.0
2014-Nov-23 15:24N 38°48' E 007°49'1819.4
2014-Nov-23 14:28N 38°46' E 008°12'1617.1
2014-Nov-23 13:31N 38°46' E 008°32'1818.7
2014-Nov-23 12:33N 38°48' E 008°56'1918.8
2014-Nov-23 11:33N 38°54' E 009°18'2417.0
2014-Nov-23 10:09N 39°02' E 009°47'7816.9
2014-Nov-23 05:33N 39°33' E 011°20'11218.7
2014-Nov-22 23:33N 40°16' E 013°35'1918.9
2014-Nov-22 22:33N 40°23' E 013°58'1919.0
2014-Nov-22 21:34N 40°30' E 014°21'17 1.2
2014-Nov-22 07:32N 40°32' E 014°42'  

Dump ship's entire track history